{"data":{"norad_id":64132,"epoch":"2026-09-20T22:37:18.431616Z","epoch_age_seconds":102220,"freshness":"FRESH","line1":"1 64132U 25111K   26263.94257444  .00106051  00000+0  81842-3 0  9992","line2":"2 64132  42.9988 237.2555 0000975 245.7938 114.2828 15.70870967 77398","mean_motion":15.70870967,"eccentricity":9.75e-5,"inclination_deg":42.9988,"raan_deg":237.2555,"arg_perigee_deg":245.7938,"mean_anomaly_deg":114.2828,"bstar":0.00081842,"rev_number":7739,"period_min":91.668891350769,"perigee_km":355.74993554453,"apogee_km":357.06317153747,"semimajor_km":6734.543553541,"source":"CELESTRAK","updated_at":"2026-09-21T09:00:35.234342Z"}}